Miscellaneous Local Product
Issued by NWS Hastings, NE

Home | Current Version | Previous Version | Graphics & Text | Print | Product List | Glossary On
Versions: 1 2 3 4 5 6 7 8 9 10 11 12 13 14 15 16 17 18 19 20 21 22 23 24 25 26 27 28 29 30 31 32 33 34 35 36 37 38 39 40 41 42 43 44 45 46 47 48 49 50
000
AXUS43 KGID 210202
MISGRI

GID CWA HOURLY WEATHER ROUNDUP
NATIONAL WEATHER SERVICE HASTINGS NE
900 PM CDT SUN JUL 20 2014

NOTE: "FAIR" INDICATES FEW OR NO CLOUDS BELOW 12,000 FEET WITH NO
SIGNIFICANT WEATHER AND/OR OBSTRUCTIONS TO VISIBILITY.

...SOUTH CENTRAL NEBRASKA...

CITY           SKY/WX    TMP DP  RH WIND       PRES   REMARKS
GRAND ISLAND   CLEAR     86  74  67 S9        29.78R HX  94
HASTINGS       CLEAR     87  70  56 S9        29.79R HX  92
KEARNEY        CLEAR     84  73  70 S9        29.79R HX  91
ORD            NOT AVBL
YORK           CLEAR     84  73  70 SE10      29.80R HX  91
AURORA         CLEAR     84  76  78 SE9       29.79R HX  93
LEXINGTON      CLEAR     85  67  55 SE5       29.78R
HOLDREGE       CLEAR     87  72  59 S7        29.80R HX  93
HEBRON         CLEAR     87  71  59 S8        29.81R HX  92

...NEBRASKA PANHANDLE...

CITY           SKY/WX    TMP DP  RH WIND       PRES   REMARKS
CHADRON        PTCLDY    87  57  35 S12       29.78R
ALLIANCE       PTCLDY    87  47  24 S3        29.86R
SCOTTSBLUFF    PTCLDY    88  57  34 SE6       29.88R
SIDNEY         PTCLDY    86  43  22 E6        29.94R

...WESTERN AND NORTH CENTRAL NEBRASKA...

CITY           SKY/WX    TMP DP  RH WIND       PRES   REMARKS
VALENTINE      CLEAR     84  71  65 SE7       29.79R
AINSWORTH      CLEAR     80  71  74 E7        29.80S
ONEILL         CLEAR     82  72  70 SE7       29.80R
BROKEN BOW     CLEAR     83  71  67 CALM      29.79R
IMPERIAL       CLEAR     85  61  44 NE8       29.85R
NORTH PLATTE   PTCLDY    80  70  71 E6        29.79R
MCCOOK         PTCLDY    89  64  43 S7        29.79R HX  90

...EASTERN NEBRASKA...

CITY           SKY/WX    TMP DP  RH WIND       PRES   REMARKS
NORFOLK        CLEAR     82  72  71 SE8       29.79S
SO SIOUX CITY  CLEAR     81  73  76 SE12      29.81R
TEKAMAH        CLEAR     82  72  71 SE10      29.82R
COLUMBUS       CLEAR     84  72  65 SE7       29.80R
ALBION         CLEAR     82  71  70 E6        29.79R
OMAHA EPPLEY   CLEAR     82  70  66 SE16      29.84R
OFFUTT AFB     CLEAR     79  76  89 E10       29.84R
MILLARD        CLEAR     81  72  73 SE9       29.83R
LINCOLN        CLEAR     87  71  58 SE15      29.82R HX  93
NEBRASKA CITY  CLEAR     79  70  73 S10G17    29.86R
BEATRICE       CLEAR     82  71  69 S12       29.83R
FALLS CITY     CLEAR     79  71  76 SE8       29.86R

...NORTHERN KANSAS...

CITY           SKY/WX    TMP DP  RH WIND       PRES   REMARKS
GOODLAND       MOCLDY    87  56  34 S7        29.90R
HILL CITY      CLEAR     90  72  55 S14G21    29.80R HX  97
NORTON         CLEAR     88  63  42 S9        29.79R
PHILLIPSBURG   CLEAR     91  70  49 S14       29.77R HX  97
SMITH CENTER   CLEAR     88  72  58 SE14      29.80S HX  94
BELOIT         CLEAR     86  70  58 S13       29.80R HX  90
HAYS           CLEAR     86  70  58 S10       29.83R HX  90
RUSSELL        CLEAR     86  74  67 S16       29.82R HX  94
CONCORDIA      CLEAR     86  72  62 S13       29.82R HX  92
SALINA         CLEAR     89  71  55 S14       29.84R HX  95
TOPEKA         CLEAR     83  69  62 SE12      29.89R



USA.gov is the U.S. government's official web portal to all federal, state and local government web resources and services.